Theta_e
323 319 319 315 304 304 300 303 310 306 306 310 311 308 307 309 308 306 330 335 344 354 352 351 350 352 354 355 355 355 354 355 356 355 356 356 356 356 356 356 355 357 359 359 356 356 356 356 355
319 321 316 310 302 298 301 308 306 307 309 311 310 310 308 308 315 318 325 335 343 351 356 351 350 351 353 353 354 355 356 355 355 355 356 356 355 355 355 355 355 357 358 358 356 355 357 356 354
321 320 309 306 302 298 301 308 307 308 310 309 308 312 311 312 318 320 330 337 345 347 357 353 348 350 352 352 353 354 355 354 354 354 356 356 355 355 355 354 354 356 358 358 358 356 356 354 351
315 313 310 302 300 305 306 310 309 308 309 310 310 307 313 320 319 323 330 336 346 350 354 346 346 348 351 351 353 353 353 353 352 353 355 356 355 355 354 353 354 356 358 358 357 356 354 350 349
315 311 302 301 302 306 309 311 311 307 309 310 310 307 310 318 321 323 329 338 348 354 354 351 345 348 350 351 352 352 352 351 352 352 353 354 354 354 353 352 353 355 357 356 355 354 351 348 347
307 309 300 298 302 307 311 313 311 309 310 310 309 309 311 320 320 322 327 339 352 356 357 351 349 348 348 348 349 349 349 350 351 351 352 353 353 352 352 351 352 353 353 353 351 350 348 346 346
304 304 300 302 302 305 309 314 310 309 309 309 313 308 314 317 321 322 326 332 349 357 361 356 353 349 347 346 345 345 347 348 349 350 350 351 350 349 350 350 351 352 351 350 350 348 347 345 345
307 304 300 302 301 302 310 311 311 309 308 314 314 307 308 319 321 322 323 324 340 354 356 358 355 352 350 349 345 344 345 346 347 348 348 347 348 349 349 348 349 350 349 348 349 347 345 344 343
310 300 297 300 302 305 311 309 311 313 310 311 313 312 315 319 319 318 320 322 328 349 352 354 352 352 352 351 348 345 346 346 345 347 347 344 352 350 350 347 346 348 345 344 346 345 343 342 341
304 299 300 306 308 307 309 308 309 307 308 308 310 314 317 317 317 315 315 317 326 332 350 352 351 350 352 351 350 348 348 346 347 347 348 350 351 352 350 347 344 345 343 343 343 342 340 339 342
305 300 304 306 308 309 307 306 309 306 304 308 308 311 314 315 317 318 315 315 318 328 346 350 351 349 348 349 351 349 348 347 347 347 347 348 348 349 347 347 346 346 343 346 342 341 343 343 342
301 305 306 306 307 306 304 307 305 306 307 311 311 312 311 310 312 314 313 315 317 328 326 348 350 350 349 349 348 351 351 348 347 347 348 348 346 346 347 345 346 347 346 344 343 343 343 342 342
303 305 306 307 307 306 306 303 303 304 308 310 310 310 310 310 311 313 314 315 323 322 322 324 330 345 349 347 349 348 347 349 348 350 349 347 346 345 345 344 344 345 345 344 342 342 342 341 340
304 304 304 304 304 305 303 303 304 305 308 307 308 308 310 310 311 312 314 317 317 320 322 325 328 329 329 346 346 346 348 347 349 348 348 349 348 344 343 343 341 344 343 343 342 341 339 339 339
305 300 302 303 304 303 305 300 301 307 308 307 307 308 309 310 311 311 315 316 319 321 323 326 328 331 331 330 334 345 345 346 345 346 347 346 346 346 344 342 340 340 342 340 342 340 341 339 338
299 300 295 302 304 305 303 295 303 308 307 306 307 308 309 310 310 312 315 318 319 320 323 325 325 328 330 331 330 329 331 344 344 344 345 346 345 344 343 342 339 341 340 341 341 340 338 337 336
298 292 295 298 306 304 303 299 305 307 307 305 306 307 308 308 310 314 317 319 318 319 322 323 325 325 326 329 329 329 329 327 342 343 342 344 343 342 343 342 341 341 339 339 340 338 337 335 334
292 293 296 297 302 304 301 301 304 306 306 304 305 306 307 307 308 315 316 318 318 320 321 321 321 323 324 324 327 327 326 326 327 338 342 343 344 342 342 342 341 340 339 338 339 336 337 335 334
297 295 294 298 302 300 300 299 302 305 305 304 304 305 306 308 313 315 317 318 317 318 317 317 317 318 318 318 318 319 320 323 324 331 337 341 342 342 341 341 340 339 337 336 337 334 333 331 332
296 294 293 297 300 299 297 295 298 303 303 304 304 304 305 308 311 312 314 315 316 315 314 314 313 314 314 315 316 317 317 318 321 324 326 335 338 339 340 340 339 338 336 335 335 333 330 331 332
293 292 292 292 296 297 295 292 296 301 303 304 305 305 307 309 309 310 311 312 314 312 312 311 311 311 312 313 313 314 315 316 318 320 321 324 336 338 339 340 339 336 335 333 334 332 329 327 330
289 296 294 292 290 285 294 284 292 297 299 301 303 305 308 309 309 309 309 309 311 310 311 310 310 309 310 310 308 308 308 308 312 315 320 324 336 336 338 339 338 335 334 332 332 333 330 328 325
291 295 293 292 289 288 288 285 290 296 295 298 302 306 308 307 308 307 307 307 308 308 308 308 307 306 306 306 305 303 302 306 309 313 315 320 324 335 336 337 336 334 333 331 333 332 330 328 325
296 291 291 291 288 280 287 285 286 292 296 299 303 305 306 306 306 306 306 306 305 306 306 304 303 302 303 303 301 299 299 301 303 306 310 314 322 329 334 334 337 336 333 331 331 326 330 328 328
292 287 280 279 280 279 289 286 288 296 300 301 303 304 305 305 304 303 302 302 303 303 303 301 300 300 301 301 298 297 298 299 300 303 306 310 316 324 327 333 334 334 332 331 331 330 329 328 327
289 287 281 275 278 281 289 283 288 300 303 304 304 303 303 302 302 301 301 301 301 301 301 299 298 298 299 298 297 296 297 299 301 304 307 309 315 322 328 330 332 332 332 331 331 329 327 324 323
289 285 291 284 284 281 285 289 295 300 300 301 301 300 299 299 299 299 300 301 300 300 299 298 296 295 296 296 295 295 297 299 300 303 307 312 317 322 330 332 331 331 331 331 324 322 323 322 326
293 295 284 284 277 277 284 286 287 294 295 297 296 296 296 297 297 298 299 299 299 299 298 298 296 293 294 294 293 294 295 298 300 303 306 316 321 327 330 331 331 329 330 329 326 326 327 329 328
290 288 289 288 286 280 279 283 293 291 294 294 295 295 296 296 296 296 298 298 297 297 296 296 294 292 291 292 292 293 293 295 297 299 301 304 309 327 329 330 330 329 328 328 328 327 327 326 325
293 289 289 284 282 285 284 283 295 293 295 295 295 295 296 296 295 295 296 296 295 294 293 293 292 291 290 290 291 291 291 293 294 295 298 302 302 311 327 329 329 328 326 326 326 324 324 323 318
Wind_Speed
10 11 10 9 6 8 15 17 20 8 4 10 7 4 10 8 7 6 14 11 7 13 13 12 11 11 11 12 11 12 13 13 13 13 13 13 12 12 12 10 8 8 8 9 10 9 8 7 5
10 15 8 6 8 11 12 12 8 17 16 9 1 6 7 6 7 4 10 13 9 6 12 12 9 10 10 10 11 12 12 13 14 14 14 13 13 12 11 11 10 9 9 11 10 10 9 7 6
11 16 7 6 10 13 16 4 6 12 6 1 0 4 5 4 13 4 10 9 8 2 13 13 14 10 9 10 10 11 13 13 14 14 14 15 15 14 13 12 12 11 9 10 9 8 6 7 7
8 5 6 8 17 18 20 21 7 5 5 2 6 5 5 8 3 5 8 9 7 5 3 19 16 12 10 10 10 10 11 12 13 15 15 15 14 14 14 13 12 12 10 12 10 8 8 7 7
8 7 11 13 18 19 18 20 6 3 6 5 8 9 8 10 7 6 6 7 7 8 12 11 17 14 10 9 10 10 10 12 12 14 14 14 14 14 13 13 13 11 9 10 10 9 7 7 8
8 7 12 13 18 21 17 6 3 2 8 12 13 13 10 6 8 8 5 5 6 5 10 10 10 11 12 10 10 9 9 10 11 12 13 14 14 13 13 13 13 12 10 10 10 8 9 8 8
14 12 17 20 18 20 20 21 6 4 8 12 9 11 1 4 12 8 4 4 7 5 0 9 9 9 9 9 8 9 9 10 10 11 12 12 12 12 13 13 13 12 11 10 10 10 10 9 8
12 13 22 19 18 23 19 11 3 3 9 1 5 3 7 5 7 6 6 6 3 8 3 1 10 10 9 8 8 8 9 10 10 10 10 10 10 11 11 11 11 11 10 10 9 9 10 11 8
17 12 15 23 22 21 19 12 3 8 8 6 5 11 12 10 8 6 6 6 5 7 9 4 2 8 9 9 9 8 9 9 9 9 9 9 7 9 11 11 12 10 9 8 9 9 8 8 10
16 14 22 22 22 21 19 19 12 10 14 12 12 12 8 8 5 7 7 7 4 4 11 8 8 3 4 7 10 10 8 7 7 8 9 6 7 8 11 12 10 13 11 9 8 9 9 7 5
18 20 21 24 26 26 22 17 19 20 18 14 11 11 9 6 3 4 8 10 8 3 6 10 9 9 5 4 5 6 6 6 6 8 8 8 7 5 7 6 8 7 8 5 6 5 5 8 6
24 24 23 24 25 25 24 21 20 21 19 16 12 10 8 8 7 6 9 9 8 2 3 10 12 10 11 6 4 4 5 8 7 9 9 7 6 6 6 5 9 8 7 9 7 6 7 8 8
23 23 24 23 23 22 22 22 25 23 20 17 16 15 11 9 8 9 6 9 2 3 8 9 5 5 9 8 6 7 8 6 7 8 11 9 9 7 7 7 7 9 8 9 8 7 8 8 8
22 26 27 26 23 22 23 25 22 20 20 20 19 17 13 10 12 8 6 3 6 7 5 8 8 7 6 5 7 6 5 7 6 5 5 7 5 9 8 6 7 8 8 7 8 7 5 6 6
22 26 22 22 25 28 24 32 27 21 21 21 18 14 13 11 12 7 3 6 4 4 7 7 3 7 7 7 5 5 7 7 8 8 10 12 9 5 5 4 6 7 8 8 8 5 6 5 4
25 27 25 20 25 24 23 36 20 21 22 23 21 13 12 12 10 7 8 5 5 6 8 6 7 7 6 7 5 5 7 4 6 6 8 14 14 11 8 8 6 3 3 7 7 7 5 5 5
17 23 27 32 26 26 25 33 24 22 24 14 16 14 11 10 10 9 9 3 5 7 7 6 5 6 7 6 5 7 7 7 6 7 7 12 14 14 12 11 9 8 6 5 7 7 7 5 4
22 23 26 27 23 26 26 28 18 20 13 10 12 12 12 11 8 14 7 10 7 7 6 7 7 8 7 6 5 5 6 6 8 8 8 10 12 15 14 12 10 11 10 8 7 8 6 5 6
27 27 30 28 27 30 24 23 20 18 20 13 16 14 11 10 15 13 10 9 7 8 8 10 9 9 9 7 7 7 7 6 5 9 12 9 11 15 14 12 12 10 10 11 10 5 9 5 4
24 27 25 25 26 25 20 20 28 19 20 18 17 17 13 11 14 12 10 9 6 6 9 9 10 11 9 8 9 8 8 9 10 11 11 13 13 16 14 14 12 12 11 13 12 13 7 5 9
26 22 22 24 23 27 19 17 24 29 21 19 18 15 16 15 14 11 8 8 6 8 8 9 10 11 10 11 9 9 9 10 10 11 11 13 16 13 14 15 12 12 10 3 11 11 14 9 8
18 20 23 21 14 12 10 9 21 27 21 24 18 11 16 15 13 11 9 7 6 10 10 10 11 12 11 13 11 14 11 12 11 14 13 12 14 15 15 18 15 13 11 13 12 10 9 9 9
17 13 13 16 18 15 22 12 16 25 26 20 12 15 16 14 11 10 8 8 11 11 10 11 12 13 14 13 12 10 13 11 11 13 19 18 16 17 16 17 17 15 11 14 14 12 11 9 8
8 6 10 13 11 11 22 15 13 13 12 16 17 20 15 13 12 9 10 11 11 11 10 11 12 14 14 12 13 14 16 16 13 14 14 14 15 12 16 17 15 15 12 12 14 14 16 16 12
11 1 4 7 8 11 8 13 17 9 20 15 23 16 14 12 12 9 11 12 11 12 12 11 13 14 14 14 14 15 15 16 18 16 14 18 16 11 15 15 13 12 13 14 13 16 17 13 13
18 11 5 5 4 6 4 5 4 5 14 24 20 7 13 14 11 11 11 11 12 12 13 14 15 15 15 15 16 15 15 10 12 15 14 14 16 13 12 25 14 15 15 15 17 14 9 10 7
6 12 20 14 12 6 7 6 4 6 20 17 13 8 11 14 11 10 11 11 12 13 13 13 14 15 15 16 15 16 14 14 13 17 16 17 20 15 12 12 11 11 14 13 11 7 10 11 12
16 7 6 6 5 5 6 11 1 12 15 15 16 11 11 11 12 11 11 11 11 12 12 12 12 15 16 17 16 13 16 14 14 13 15 15 16 18 9 9 11 13 14 14 15 12 11 12 9
16 15 5 5 8 4 5 2 13 13 15 9 11 11 13 13 12 11 11 12 13 12 12 12 13 15 16 16 17 16 16 16 15 13 16 18 20 13 12 14 15 14 14 13 14 14 13 12 8
6 8 5 4 2 2 2 2 9 6 7 5 8 11 13 14 13 13 13 14 14 13 14 14 14 16 16 16 16 18 16 16 16 15 16 16 16 17 12 14 13 16 14 13 13 13 11 11 8
Wind_Direction
278 249 244 260 248 225 265 263 268 102 129 70 33 322 349 333 337 55 87 40 3 122 140 152 141 145 148 147 149 151 156 154 149 146 149 146 141 139 137 134 137 143 154 155 162 167 174 177 158
268 269 246 274 247 268 264 271 49 59 68 81 74 287 263 279 61 63 40 16 348 116 144 164 156 151 151 148 148 152 159 158 154 155 153 150 149 147 146 149 156 164 170 164 172 180 178 167 166
258 256 266 232 236 250 277 351 52 84 76 48 353 151 332 1 72 50 41 2 358 318 148 156 152 153 152 152 153 155 160 164 158 156 159 159 158 158 159 161 164 176 178 178 167 178 189 177 173
252 210 251 257 261 269 282 306 98 119 137 231 277 287 177 83 73 60 39 9 7 331 246 141 147 151 155 158 160 166 162 159 159 159 162 163 164 165 165 169 172 182 185 169 170 189 194 176 179
253 269 245 250 257 266 267 275 122 167 299 248 200 256 284 160 142 85 35 35 14 334 88 141 143 149 157 163 166 165 164 162 164 160 163 167 167 170 171 173 179 185 187 179 173 184 182 187 188
248 247 256 255 259 259 260 281 33 263 246 256 268 259 259 292 151 71 16 56 85 337 119 129 134 147 156 169 171 167 162 163 164 163 166 168 171 173 174 179 179 185 190 189 177 185 180 184 190
254 269 261 268 277 285 296 303 203 245 277 264 290 265 241 320 59 43 336 305 130 115 18 139 155 166 167 166 173 163 161 167 168 169 171 169 170 173 181 182 186 185 191 191 188 175 178 185 193
244 268 270 272 274 275 284 291 33 320 273 278 9 223 229 161 50 4 306 286 198 125 107 321 154 162 181 173 171 165 166 170 169 170 169 166 172 178 185 186 190 194 194 193 190 182 178 177 190
263 255 259 260 262 272 274 298 320 301 277 275 274 240 275 323 341 314 289 284 262 141 150 141 43 165 180 181 170 169 174 169 165 170 175 160 187 184 191 198 190 195 195 196 192 182 183 182 178
240 248 244 263 285 293 304 303 299 242 258 226 231 258 234 241 280 302 296 285 263 260 135 153 139 130 189 199 161 179 181 186 188 186 172 193 205 185 197 190 192 185 188 200 191 185 177 172 200
248 246 261 275 293 306 305 292 297 287 270 257 268 261 264 245 246 252 286 281 277 46 149 165 161 155 186 261 145 177 181 189 194 198 185 190 201 217 194 187 186 183 185 203 193 186 200 192 218
262 260 264 277 285 288 291 299 272 272 278 280 274 281 275 268 258 221 244 261 277 248 350 160 165 169 173 197 206 206 206 186 189 195 194 185 206 207 194 203 178 188 182 197 203 197 200 211 203
269 276 267 268 276 273 287 268 278 267 278 272 259 256 247 235 252 249 251 259 308 54 29 34 48 187 184 204 213 214 212 194 209 191 198 199 189 205 206 194 187 185 187 183 203 205 197 206 210
282 284 284 286 290 288 280 274 268 263 268 265 263 254 241 208 229 224 216 275 71 60 9 45 12 4 3 207 199 232 249 236 202 209 207 213 217 196 212 206 196 180 185 173 198 201 195 205 201
270 265 273 265 271 269 268 272 255 267 258 259 242 237 232 215 211 204 149 53 18 48 43 42 321 28 355 336 331 222 205 231 225 208 204 206 219 252 223 232 194 211 177 183 186 210 170 193 196
275 274 276 265 269 264 242 262 257 265 243 238 246 240 214 221 204 157 92 59 22 31 49 20 7 347 336 334 337 322 311 230 229 232 211 189 199 213 231 232 224 216 191 179 183 189 173 180 180
252 264 267 279 270 269 248 255 248 250 260 241 222 231 213 194 178 128 107 136 55 36 38 12 1 350 348 324 312 308 299 295 260 229 234 190 193 193 217 225 211 201 211 201 184 190 178 171 174
271 268 271 271 272 270 260 265 261 244 238 208 247 223 202 210 162 113 130 75 46 48 20 20 15 356 340 312 287 271 263 271 281 258 230 223 191 199 203 223 228 197 198 203 184 189 173 168 176
268 270 280 282 287 298 293 312 252 230 249 208 211 228 215 193 118 110 87 83 46 41 27 12 4 358 350 331 327 314 303 302 259 262 242 246 201 199 210 210 219 199 204 200 180 176 171 167 156
278 273 274 272 286 281 315 307 295 259 263 217 222 222 205 170 126 108 99 74 62 37 32 9 0 358 346 333 335 318 303 295 294 297 300 261 233 205 208 215 208 204 206 199 188 176 183 172 162
270 267 278 280 302 303 303 279 276 280 262 258 229 229 189 135 118 110 83 62 42 54 31 9 1 351 343 335 327 322 313 304 273 271 274 270 229 212 197 215 211 203 198 210 214 191 180 176 165
273 259 270 281 285 271 323 285 271 279 268 236 222 194 116 104 96 84 65 49 33 43 31 10 358 348 347 346 338 327 310 294 290 293 292 272 238 214 202 202 207 198 194 196 199 213 200 174 168
267 344 300 277 272 285 266 262 267 251 253 252 145 120 98 85 83 75 60 37 43 34 20 15 1 351 346 343 338 325 305 296 293 290 290 282 278 222 206 195 202 206 201 205 192 171 193 193 167
146 309 302 276 260 244 252 238 278 288 251 155 137 101 109 110 86 64 52 41 31 26 19 14 359 348 341 336 329 312 300 294 287 284 286 283 283 257 227 201 199 198 185 194 206 183 210 192 178
164 148 246 222 214 249 242 236 250 319 353 146 98 133 121 96 80 53 39 32 23 19 14 4 359 347 335 333 322 308 296 290 283 280 273 275 276 287 271 198 191 189 179 187 201 200 213 189 188
200 193 223 247 250 280 173 248 224 31 86 64 83 47 92 87 76 58 46 34 18 13 13 8 359 341 336 334 324 312 300 288 284 276 267 266 266 269 201 219 195 185 177 193 196 208 201 166 210
194 215 235 277 285 278 202 209 204 177 103 107 113 113 78 75 63 52 42 35 24 15 13 12 3 342 332 330 324 317 307 305 298 292 274 260 257 256 219 204 202 190 190 188 176 203 218 218 199
208 172 205 207 262 256 235 203 69 175 141 130 125 99 72 63 50 40 36 36 31 19 11 11 5 347 337 333 328 322 316 316 306 304 310 309 244 246 221 202 204 202 200 186 195 194 205 201 190
206 221 191 274 244 267 319 80 36 46 54 78 93 68 59 47 38 29 28 35 35 17 9 7 358 357 347 338 332 334 331 329 325 336 335 334 322 248 219 200 197 198 190 189 197 198 195 197 196
244 231 184 248 313 229 355 2 113 109 166 145 98 71 66 49 32 24 21 24 23 14 1 7 359 358 351 339 339 344 339 339 333 349 341 334 326 330 248 221 194 191 187 183 185 180 181 194 177